Butler, PA

1:49 PM EDT on May 27, 2017 (GMT -0400)
Butler County-Scholter

Weather History for KBTP - February, 2014

Change the Weather History Date:

Monday, February 17, 2014

  Actual Average Record
Temperature  
Mean Temperature 13 °F -  
Max Temperature 30 °F 37 °F 63 °F (1990)
Min Temperature -4 °F 22 °F -15 °F (1979)
Degree Days  
Heating Degree Days 52    
Moisture  
Dew Point 7 °F    
Average Humidity 68    
Maximum Humidity 100    
Minimum Humidity 40    
Precipitation  
Precipitation 0.02 in - - ()
Sea Level Pressure  
Sea Level Pressure 30.18 in    
Wind  
Wind Speed 6 mph (ESE)    
Max Wind Speed 20 mph    
Max Gust Speed 29 mph    
Visibility 8 miles    
Events      
Averages and records for this station are not official NWS values.
T = Trace of Precipitation, MM = Missing Value Source: NWS Daily Summary

Daily Weather History Graph

Daily Weather History Graph

Search for Another Location

Airport or City:

Trip Planner

Search our weather history database for the weather conditions in past years. The results will help you decide how hot, cold, wet, or windy it might be!

Date:

Astronomy

Feb. 17, 2014 Rise Set
Actual Time 7:11 AM EST 5:57 PM EST
Civil Twilight 6:43 AM EST 6:25 PM EST
Nautical Twilight 6:11 AM EST 6:57 PM EST
Astronomical Twilight 5:39 AM EST 7:28 PM EST
Moon 8:51 PM EST (2/17) 8:09 AM EST (2/17)
Length of Visible Light 11h 41m
Length of Day
10h 45m
Waning Gibbous, 93% of the Moon is Illuminated
Feb 17
Waning Gibbous
Feb 22
Last Quarter
Mar 1
New
Mar 8
First Quarter
Mar 16
Full

Hourly Weather History & Observations

Time (EST) Temp. Windchill Dew Point Humidity Pressure Visibility Wind Dir Wind Speed Gust Speed Precip Events Conditions
12:15 AM 12.2 °F - 6.8 °F 79% 30.29 in 10.0 mi Calm Calm - N/A   Mostly Cloudy
12:35 AM 12.2 °F 6.1 °F 8.6 °F 85% 30.30 in 9.0 mi NW 3.5 mph - N/A   Mostly Cloudy
12:55 AM 12.2 °F 2.9 °F 8.6 °F 85% 30.31 in 8.0 mi WNW 5.8 mph - N/A   Overcast
1:15 AM 12.2 °F 6.1 °F 6.8 °F 79% 30.30 in 8.0 mi NW 3.5 mph - N/A   Overcast
1:35 AM 12.2 °F - 6.8 °F 79% 30.30 in 10.0 mi Calm Calm - N/A   Overcast
1:55 AM 12.2 °F 4.3 °F 6.8 °F 79% 30.30 in 7.0 mi NW 4.6 mph - N/A   Overcast
2:15 AM 12.2 °F 6.1 °F 6.8 °F 79% 30.31 in 9.0 mi NW 3.5 mph - N/A   Mostly Cloudy
2:35 AM 10.4 °F 4.0 °F 5.0 °F 79% 30.32 in 10.0 mi NW 3.5 mph - N/A   Partly Cloudy
2:55 AM 8.6 °F - 3.2 °F 79% 30.30 in 10.0 mi Calm Calm - N/A   Clear
3:15 AM 6.8 °F - 3.2 °F 85% 30.29 in 10.0 mi Calm Calm - N/A   Clear
3:35 AM 6.8 °F - 1.4 °F 79% 30.29 in 7.0 mi Calm Calm - N/A   Clear
3:55 AM 6.8 °F - 1.4 °F 79% 30.30 in 5.0 mi Calm Calm - N/A   Clear
4:15 AM 6.8 °F - 3.2 °F 85% 30.30 in 2.5 mi Calm Calm - N/A   Clear
4:35 AM 3.2 °F - 1.4 °F 92% 30.30 in 1.8 mi Calm Calm - N/A   Clear
4:55 AM 3.2 °F - -4.0 °F 72% 30.31 in 8.0 mi Calm Calm - N/A   Clear
5:15 AM -0.4 °F - -2.2 °F 92% 30.31 in 1.2 mi Calm Calm - N/A   Clear
5:35 AM -0.4 °F - -7.6 °F 72% 30.32 in 10.0 mi Calm Calm - N/A   Clear
5:55 AM 1.4 °F - 1.4 °F 100% 30.33 in 9.0 mi Calm Calm - N/A   Clear
6:15 AM 1.4 °F - -0.4 °F 92% 30.33 in 1.5 mi Calm Calm - N/A   Clear
6:35 AM -0.4 °F - -5.8 °F 78% 30.34 in 1.2 mi Calm Calm - N/A   Clear
6:55 AM -4.0 °F - -7.6 °F 85% 30.35 in 8.0 mi Calm Calm - N/A   Clear
7:15 AM -0.4 °F - -4.0 °F 85% 30.36 in 5.0 mi Calm Calm - N/A   Clear
7:35 AM 1.4 °F - -2.2 °F 85% 30.36 in 5.0 mi Calm Calm - N/A   Clear
7:55 AM -0.4 °F - -5.8 °F 78% 30.37 in 5.0 mi Calm Calm - N/A   Clear
8:15 AM -2.2 °F -10.4 °F -9.4 °F 71% 30.37 in 4.0 mi NNE 3.5 mph - N/A   Clear
8:35 AM -0.4 °F - -5.8 °F 78% 30.38 in 7.0 mi Calm Calm - N/A   Clear
8:55 AM 1.4 °F -6.2 °F -2.2 °F 85% 30.38 in 5.0 mi ENE 3.5 mph - N/A   Clear
9:15 AM 3.2 °F -7.8 °F 1.4 °F 92% 30.38 in 5.0 mi ENE 5.8 mph - N/A   Clear
9:35 AM 10.4 °F -0.4 °F 8.6 °F 92% 30.38 in 10.0 mi East 6.9 mph - N/A   Clear
9:55 AM 10.4 °F 2.2 °F 8.6 °F 92% 30.38 in 10.0 mi ESE 4.6 mph - N/A   Clear
10:15 AM 12.2 °F -1.0 °F 10.4 °F 92% 30.37 in 10.0 mi ESE 10.4 mph - N/A   Clear
10:35 AM 12.2 °F 0.7 °F 10.4 °F 92% 30.36 in 10.0 mi ESE 8.1 mph - N/A   Clear
10:55 AM 14.0 °F 1.2 °F 10.4 °F 86% 30.35 in 10.0 mi ESE 10.4 mph - N/A   Clear
11:15 AM 15.8 °F 6.1 °F 10.4 °F 79% 30.35 in 10.0 mi ESE 6.9 mph - N/A   Clear
11:35 AM 17.6 °F 7.3 °F 6.8 °F 63% 30.35 in 10.0 mi ESE 8.1 mph - N/A   Clear
11:55 AM 17.6 °F 5.7 °F 6.8 °F 63% 30.32 in 10.0 mi ESE 10.4 mph - N/A   Clear
12:15 PM 19.4 °F 7.9 °F 6.8 °F 58% 30.31 in 10.0 mi ESE 10.4 mph - N/A   Clear
12:35 PM 19.4 °F 7.9 °F 6.8 °F 58% 30.29 in 10.0 mi East 10.4 mph - N/A   Clear
12:55 PM 21.2 °F 10.9 °F 6.8 °F 54% 30.28 in 10.0 mi East 9.2 mph - N/A   Clear
1:15 PM 21.2 °F 11.7 °F 8.6 °F 58% 30.26 in 10.0 mi ESE 8.1 mph - N/A   Clear
1:35 PM 23.0 °F 13.1 °F 8.6 °F 54% 30.25 in 10.0 mi East 9.2 mph - N/A   Clear
1:55 PM 24.8 °F 12.9 °F 6.8 °F 46% 30.23 in 4.0 mi ESE 13.8 mph - N/A   Clear
2:15 PM 24.8 °F 14.0 °F 8.6 °F 50% 30.21 in 10.0 mi ESE 11.5 mph - N/A   Mostly Cloudy
2:35 PM 24.8 °F 13.4 °F 8.6 °F 50% 30.19 in 10.0 mi East 12.7 mph 19.6 mph N/A   Mostly Cloudy
2:55 PM 26.6 °F 15.2 °F 8.6 °F 47% 30.16 in 10.0 mi East 13.8 mph - N/A   Mostly Cloudy
3:15 PM 26.6 °F 14.7 °F 8.6 °F 47% 30.14 in 10.0 mi ESE 15.0 mph - N/A   Overcast
3:35 PM 26.6 °F 15.7 °F 8.6 °F 47% 30.13 in 10.0 mi East 12.7 mph 23.0 mph N/A   Overcast
3:55 PM 28.4 °F 17.0 °F 8.6 °F 43% 30.12 in 10.0 mi ESE 15.0 mph - N/A   Overcast
4:15 PM 28.4 °F 17.5 °F 8.6 °F 43% 30.11 in 10.0 mi East 13.8 mph 18.4 mph N/A   Mostly Cloudy
4:35 PM 28.4 °F 16.6 °F 8.6 °F 43% 30.09 in 10.0 mi ESE 16.1 mph - N/A   Partly Cloudy
4:55 PM 30.2 °F 20.2 °F 8.6 °F 40% 30.08 in 10.0 mi ESE 12.7 mph - N/A   Scattered Clouds
5:15 PM 30.2 °F 19.8 °F 8.6 °F 40% 30.05 in 10.0 mi East 13.8 mph 23.0 mph N/A   Scattered Clouds
5:35 PM 28.4 °F 15.8 °F 6.8 °F 40% 30.02 in 10.0 mi East 18.4 mph 25.3 mph N/A   Partly Cloudy
5:55 PM 28.4 °F 16.2 °F 6.8 °F 40% 30.01 in 10.0 mi East 17.3 mph 24.2 mph N/A   Mostly Cloudy
6:15 PM 28.4 °F 16.6 °F 8.6 °F 43% 29.99 in 10.0 mi East 16.1 mph 25.3 mph N/A   Mostly Cloudy
6:35 PM 28.4 °F 15.4 °F 8.6 °F 43% 29.97 in 10.0 mi East 19.6 mph - N/A   Mostly Cloudy
6:55 PM 28.4 °F 15.8 °F 8.6 °F 43% 29.96 in 10.0 mi East 18.4 mph 27.6 mph N/A   Mostly Cloudy
7:15 PM 28.4 °F 16.6 °F 8.6 °F 43% 29.95 in 10.0 mi East 16.1 mph 26.5 mph N/A   Overcast
7:35 PM 28.4 °F 19.7 °F 8.6 °F 43% 29.97 in 10.0 mi ESE 9.2 mph 21.9 mph N/A   Overcast
7:55 PM 28.4 °F 16.2 °F 8.6 °F 43% 29.92 in 10.0 mi ESE 17.3 mph 27.6 mph N/A   Mostly Cloudy
8:15 PM 28.4 °F 16.6 °F 8.6 °F 43% 29.90 in 10.0 mi ESE 16.1 mph 28.8 mph N/A   Overcast
8:35 PM 28.4 °F 15.4 °F 8.6 °F 43% 29.90 in 10.0 mi ESE 19.6 mph 25.3 mph N/A   Overcast
8:55 PM 28.4 °F 17.5 °F 8.6 °F 43% 29.88 in 10.0 mi ESE 13.8 mph 27.6 mph N/A   Mostly Cloudy
9:15 PM 28.4 °F 16.6 °F 10.4 °F 47% 29.88 in 10.0 mi ESE 16.1 mph 26.5 mph N/A   Overcast
9:35 PM 30.2 °F 20.2 °F 10.4 °F 44% 29.89 in 10.0 mi ESE 12.7 mph 20.7 mph N/A   Overcast
9:55 PM 24.8 °F 13.4 °F 19.4 °F 80% 29.87 in 0.8 mi ESE 12.7 mph 24.2 mph N/A   Overcast
10:15 PM 24.8 °F 11.9 °F 21.2 °F 86% 29.84 in 1.2 mi ESE 16.1 mph 24.2 mph 0.01 in   Overcast
10:35 PM 24.8 °F 11.5 °F 21.2 °F 86% 29.83 in 5.0 mi ESE 17.3 mph 23.0 mph 0.02 in   Overcast
10:55 PM 24.8 °F 12.9 °F 21.2 °F 86% 29.81 in 9.0 mi ESE 13.8 mph 28.8 mph 0.02 in   Overcast
11:15 PM 26.6 °F 14.7 °F 21.2 °F 80% 29.79 in 8.0 mi ESE 15.0 mph 28.8 mph N/A   Overcast
11:35 PM 26.6 °F 16.2 °F 21.2 °F 80% 29.80 in 5.0 mi SE 11.5 mph 24.2 mph N/A   Overcast
11:55 PM 26.6 °F 14.3 °F 21.2 °F 80% 29.79 in 3.0 mi SE 16.1 mph 21.9 mph N/A   Overcast